KJ4W Weather Reports


time (UTC)temp
C
wind
direction
speed
KPH
gust
KPH
rain 1hr
cm
rain 24hr
cm
rain mn
cm
humidity
%
barometer
mb
20260906121113 23 277 0.0 0.0 0.00 0.00 0.00 98 1012.9
20260906115614 23 277 0.0 0.0 0.00 0.00 0.00 98 1012.6
20260906114112 23 277 0.0 0.0 0.00 0.00 0.00 97 1012.4
20260906112613 23 277 0.0 0.0 0.00 0.00 0.00 98 1012.0
20260906111112 23 277 0.0 0.0 0.00 0.00 0.00 98 1012.0
20260906105613 23 277 0.0 0.0 0.00 0.00 0.00 97 1011.9
20260906104113 23 277 0.0 0.0 0.00 0.00 0.00 97 1011.6
20260906102612 23 277 0.0 0.0 0.00 0.00 0.00 96 1011.5
20260906101114 23 277 0.0 0.0 0.00 0.00 0.00 97 1011.1
20260906095612 23 277 0.0 0.0 0.00 0.00 0.00 97 1011.3
20260906094113 23 277 0.0 0.0 0.00 0.00 0.00 96 1010.8
20260906092614 24 277 0.0 0.0 0.00 0.00 0.00 96 1010.9
20260906091114 24 277 0.0 0.0 0.00 0.00 0.00 96 1011.0
20260906085613 24 277 0.0 0.0 0.00 0.00 0.00 96 1011.0
20260906084113 24 277 0.0 0.0 0.00 0.00 0.00 95 1010.9
20260906082613 24 277 0.0 0.0 0.00 0.00 0.00 95 1010.9
20260906081113 24 277 0.0 0.0 0.00 0.00 0.00 95 1011.0
20260906075612 25 277 0.0 0.0 0.00 0.00 0.00 94 1010.8
20260906074114 25 277 0.0 0.0 0.00 0.00 0.00 93 1010.8
20260906072613 25 277 0.0 0.0 0.00 0.00 0.00 93 1010.7
20260906071115 25 277 0.0 0.0 0.00 0.00 0.00 93 1010.9
20260906065613 25 5 0.0 0.0 0.00 0.00 0.00 93 1011.0
20260906064112 25 263 0.0 0.0 0.00 0.00 0.00 93 1011.0
20260906062613 25 263 0.0 0.0 0.00 0.00 0.00 93 1011.1
20260906061114 25 263 0.0 0.0 0.00 0.00 0.00 92 1011.1
20260906055635 25 263 0.0 0.0 0.00 0.00 0.00 91 1011.1
20260906054137 25 263 0.0 0.0 0.00 0.00 0.00 90 1011.2
20260906052636 25 263 0.0 0.0 0.00 0.00 0.00 90 1011.1
20260906051137 26 298 0.0 0.0 0.00 0.00 0.00 91 1011.4
20260906045635 25 298 0.0 0.0 0.00 0.00 0.00 91 1011.4
20260906044136 25 298 0.0 0.0 0.00 0.00 0.00 90 1011.4
20260906042636 25 298 0.0 0.0 0.00 0.00 0.00 89 1011.5
20260906041136 26 298 0.0 0.0 0.00 0.00 0.00 89 1011.5
20260906035635 26 298 0.0 0.0 0.00 0.00 0.00 89 1011.5
20260906034136 26 298 0.0 0.0 0.00 0.00 0.00 90 1011.3
20260906032636 26 298 0.0 0.0 0.00 0.00 0.00 90 1011.1
20260906031136 26 298 0.0 0.0 0.00 0.00 0.00 90 1010.9
20260906025635 26 298 0.0 0.0 0.00 0.00 0.00 86 1010.8
20260906024136 26 298 0.0 0.0 0.00 0.00 0.00 86 1010.8
20260906022636 26 298 0.0 0.0 0.00 0.00 0.00 86 1010.6
20260906021135 27 298 0.0 0.0 0.00 0.00 0.00 85 1010.5
20260906015635 27 298 0.0 0.0 0.00 0.00 0.00 83 1010.3
20260906014136 27 298 0.0 0.0 0.00 0.00 0.00 82 1010.3
20260906012636 27 298 0.0 0.0 0.00 0.00 0.00 82 1010.2
20260906011135 28 298 0.0 0.0 0.00 0.00 0.00 82 1010.1
20260906005635 28 298 0.0 0.0 0.00 0.00 0.00 82 1010.1
20260906004136 28 298 0.0 0.0 0.00 0.00 0.00 81 1010.0
20260906002635 29 298 0.0 0.0 0.00 0.00 0.00 79 1010.0
20260906001135 30 298 0.0 0.0 0.00 0.00 0.00 74 1010.0
20260905235634 31 298 0.0 0.0 0.00 0.00 0.00 70 1010.2
20260905234135 32 298 0.0 0.0 0.00 0.00 0.00 66 1010.2
20260905232634 33 298 0.0 0.0 0.00 0.00 0.00 62 1010.1
20260905231136 33 298 0.0 0.0 0.00 0.00 0.00 60 1010.2
20260905225634 33 298 0.0 0.0 0.00 0.00 0.00 61 1010.2
20260905224136 34 298 0.0 0.0 0.00 0.00 0.00 60 1010.2
20260905222635 34 332 0.0 0.0 0.00 0.00 0.00 57 1010.1
20260905221136 35 12 0.0 0.0 0.00 0.00 0.00 54 1010.2
20260905215634 35 355 0.0 0.0 0.00 0.00 0.00 50 1010.2
20260905214135 35 344 0.0 0.0 0.00 0.00 0.00 50 1010.4
20260905212634 36 227 0.0 0.0 0.00 0.00 0.00 47 1010.5
20260905211135 36 166 0.0 0.0 0.00 0.00 0.00 46 1010.5
20260905205635 37 46 3.2 0.0 0.00 0.00 0.00 45 1010.6
20260905204134 37 355 0.0 0.0 0.00 0.00 0.00 43 1010.7
20260905202634 37 184 4.8 0.0 0.00 0.00 0.00 46 1010.8
20260905201135 37 268 1.6 0.0 0.00 0.00 0.00 51 1011.1
20260905195634 37 261 3.2 0.0 0.00 0.00 0.00 50 1011.2
20260905194135 37 274 1.6 0.0 0.00 0.00 0.00 47 1011.6
20260905192634 37 92 1.6 0.0 0.00 0.00 0.00 49 1012.0
20260905191135 36 143 0.0 0.0 0.00 0.00 0.00 48 1012.3
20260905185634 36 247 4.8 0.0 0.00 0.00 0.00 51 1012.3
20260905184134 36 280 6.4 0.0 0.00 0.00 0.00 54 1012.4
20260905182633 36 346 4.8 0.0 0.00 0.00 0.00 50 1012.6
20260905181135 36 28 1.6 0.0 0.00 0.00 0.00 50 1012.8
20260905175640 36 32 4.8 0.0 0.00 0.00 0.00 52 1012.9
20260905174134 35 32 0.0 0.0 0.00 0.00 0.00 61 1013.2
20260905172633 36 94 0.0 0.0 0.00 0.00 0.00 53 1013.2
20260905171135 36 13 3.2 0.0 0.00 0.00 0.00 53 1013.3
20260905165635 36 229 1.6 0.0 0.00 0.00 0.00 52 1013.4
20260905164134 35 248 3.2 0.0 0.00 0.00 0.00 54 1013.5
20260905162633 35 213 1.6 0.0 0.00 0.00 0.00 55 1013.7
20260905161136 35 228 0.0 0.0 0.00 0.00 0.00 57 1013.7
20260905155635 34 161 0.0 0.0 0.00 0.00 0.00 57 1013.8
20260905154135 33 261 0.0 0.0 0.00 0.00 0.00 66 1014.0
20260905152635 32 268 0.0 0.0 0.00 0.00 0.00 65 1014.1
20260905151134 32 242 0.0 0.0 0.00 0.00 0.00 69 1014.2
20260905145633 31 275 0.0 0.0 0.00 0.00 0.00 73 1014.3
20260905144133 30 247 0.0 0.0 0.00 0.00 0.00 77 1014.2
20260905142635 29 245 0.0 0.0 0.00 0.00 0.00 81 1014.3
20260905141135 28 47 0.0 0.0 0.00 0.00 0.00 84 1014.2
20260905135635 27 54 0.0 0.0 0.00 0.00 0.00 91 1014.1
20260905134133 26 139 0.0 0.0 0.00 0.00 0.00 94 1014.0
20260905132634 25 139 0.0 0.0 0.00 0.00 0.00 96 1014.1
20260905131134 25 138 0.0 0.0 0.00 0.00 0.00 97 1014.1
20260905125633 24 139 0.0 0.0 0.00 0.00 0.00 97 1013.8
20260905124134 24 138 0.0 0.0 0.00 0.00 0.00 98 1013.9
20260905122634 23 139 0.0 0.0 0.00 0.00 0.00 98 1013.7